Погода в Снежкове

Украина / Харьковская область     49°47′35″N   35°30′28″E
темп.,
°C
ветер,
м/с
пор.,
м/с
влажн.,
%
обл.,
%
осадки,
мм/ч
давл.,
гПа
погр.,
м
15 апреля, чт
чт1500:00+8юз228645 0.0 101432
03:00+7ю3391100 0.0 101450
06:00+7ююв3488100 0.0 1014100
09:00+10ююв566899 0.0 1014528
12:00+12ююв666786 0.0 10131039
15:00+12ю556855 0.4 1013892
18:00+10ююв478183 4.3 1013697
21:00+7ююв22885 4.4 101344
16 апреля, пт
пт1600:00+7ююв488899 0.0 1013238
03:00+7ююв379185 0.1 1013329
06:00+6ююв5893100 0.1 1014437
09:00+7ююв588794 0.1 1015605
12:00+9ююв677799 0.1 1015978
15:00+10ю467584 0.5 1016892
18:00+8ююз3579100 1.4 1016643
21:00+7вюв228797 1.5 101716
17 апреля, сб
сб1700:00+7ююв3688100 0.2 1017165
03:00+6ююв2495100 3.4 1018259
06:00+5юз358993 3.1 1019261
09:00+7юз227534 3.1 1020551
12:00+10юз1160100 0.1 10211221
15:00+11ссз225791 0.1 10211033
18:00+11зюз335655 0.0 10201027
21:00+9з477380 0.0 1022279
18 апреля, вс
вс1800:00+7зсз3585100 0.0 1022155
03:00+5сз34905 0.0 102289
06:00+4сз339120 0.0 102253
09:00+10ссз347173 0.0 1022395
12:00+14ссв4459100 0.0 10221216
15:00+15св3454100 0.0 10211581
18:00+14всв356695 0.1 1021528
21:00+12вюв6107197 0.1 1022545
19 апреля, пн
пн1900:00+9в411815 0.0 1023321
03:00+7в5108377 0.0 1023272
06:00+6в512865 0.0 1022325
09:00+10в71072100 0.0 1022612
12:00+15вюв91156100 0.0 10201457
15:00+14вюв81258100 0.0 10181367
18:00+15вюв91557100 0.1 10161337
21:00+13вюв111757100 0.2 10151165